LFSB METAR :   2017/11/21 20:30 LFSB 212030Z 18004KT CAVOK 04/03 Q1017 NOSIG

TAF  2017/11/21 18:21 TAF LFSB 211700Z 2118/2218 20003KT CAVOK PROB40 TEMPO 2118/2206 6000 NSC PROB30 TEMPO 2200/2206 3000 MIFG